This is the latest recevied weather packets stored in our database for station/object GJ7DNI-13. If no packets are shown the sender has not sent any weather packets the latest 10 day(s).
| Time | Temp. | Humidity | Pressure | Rain* | Wind** | Luminosity | Snow |
|---|---|---|---|---|---|---|---|
| 1777737903 | 18.33° C | 73% | 1010.4 hPa | 0 mm | - | 490 W/m² | - |
| 1777737603 | 17.22° C | 74% | 1010.5 hPa | 0 mm | - | 531 W/m² | - |
| 1777737303 | 16.67° C | 75% | 1010.5 hPa | 0 mm | - | 547 W/m² | - |
| 1777737003 | 16.67° C | 76% | 1010.7 hPa | 0 mm | - | 538 W/m² | - |
| 1777736703 | 16.11° C | 78% | 1010.7 hPa | 0 mm | - | 482 W/m² | - |
| 1777736403 | 15.56° C | 80% | 1010.9 hPa | 0 mm | - | 332 W/m² | - |
| 1777736103 | 15.56° C | 79% | 1010.9 hPa | 0 mm | - | 199 W/m² | - |
| 1777735803 | 15.56° C | 80% | 1010.9 hPa | 0 mm | - | 98 W/m² | - |
| 1777735503 | 15° C | 79% | 1010.9 hPa | 0 mm | - | 70 W/m² | - |
| 1777735203 | 15° C | 79% | 1011 hPa | 0 mm | - | 98 W/m² | - |
| 1777734903 | 15° C | 79% | 1011.1 hPa | 0 mm | - | 97 W/m² | - |
| 1777734603 | 15.56° C | 79% | 1011.1 hPa | 0 mm | - | 88 W/m² | - |
| 1777734303 | 15° C | 79% | 1011.1 hPa | 0 mm | - | 95 W/m² | - |
| 1777734003 | 15° C | 78% | 1011.1 hPa | 0 mm | - | 100 W/m² | - |
| 1777733703 | 15° C | 78% | 1011.2 hPa | 0 mm | - | 98 W/m² | - |
| 1777733403 | 15° C | 78% | 1011.2 hPa | 0 mm | - | 109 W/m² | - |
| 1777733103 | 15.56° C | 78% | 1011.3 hPa | 0 mm | - | 69 W/m² | - |
| 1777732803 | 15.56° C | 77% | 1011.4 hPa | 0 mm | - | 105 W/m² | - |
| 1777732503 | 15.56° C | 77% | 1011.3 hPa | 0 mm | - | 146 W/m² | - |
| 1777732203 | 15.56° C | 76% | 1011.3 hPa | 0 mm | - | 97 W/m² | - |
| 1777731903 | 15.56° C | 76% | 1011.4 hPa | 0 mm | - | 160 W/m² | - |
| 1777731603 | 16.11° C | 76% | 1011.3 hPa | 0 mm | - | 223 W/m² | - |
| 1777731303 | 16.11° C | 76% | 1011.4 hPa | 0 mm | - | 206 W/m² | - |
| 1777731003 | 16.11° C | 75% | 1011.5 hPa | 0 mm | - | 230 W/m² | - |
| 1777730703 | 16.11° C | 76% | 1011.5 hPa | 0 mm | - | 348 W/m² | - |
* Rain latest hour (hover to see other rain measurements)
** Current wind speed in m/s (hover to see current wind gust speed)